sat.trackr.live / text

‹ back to catalog

STARLINK-37095

NORAD 68237 · 2026-054F

PAYLOAD ACTIVE UNKNOWN

§ Identity

Operator
Country
US
Launch date
2026-03-17
Launch site
AFETR
Launch vehicle
Mass (kg)
RCS (m²)

Purposes: comms

External: N2YO · Heavens-Above · Gunter

§ Orbital elements

Epoch: 2026-05-25T02:55:59.332800Z

Period
93.85 min
Inclination
53.1601°
Eccentricity
0.0002068
Mean motion
15.34437296 rev/d
Perigee alt
461.2 km
Apogee alt
464.0 km
Semi-major
6,840.7 km
B*
1.2045e-3
RAAN
295.4221°
Arg perigee
82.8261°
Mean anomaly
277.2977°
Rev number
1,078

§ Raw data

STARLINK-370951 68237U 26054F   26145.12221450  .00040588  00000+0  12045-2 0  99962 68237  53.1601 295.4221 0002068  82.8261 277.2977 15.34437296 10783

JSON: /api/v1/satellites/68237 · /tle

For live sub-satellite position, see the globe view (requires WebGL).

§ Visibility from observer

Set your observer location to see the next 7 days of passes ≥ 10°. The values pass through the URL so the page stays shareable.

No JS? Fill the form by hand. The geolocation button needs JavaScript.